This is the latest recevied weather packets stored in our database for station/object KA3BQE-13. If no packets are shown the sender has not sent any weather packets the latest 10 day(s).
| Time | Temp. | Humidity | Pressure | Rain* | Wind** | Luminosity | Snow |
|---|---|---|---|---|---|---|---|
| 1777833013 | 17.22° C | 49% | 1013.4 hPa | 0 mm | - | 423 W/m² | - |
| 1777832712 | 16.67° C | 49% | 1013.7 hPa | 0 mm | - | 657 W/m² | - |
| 1777832409 | 16.11° C | 49% | 1014 hPa | 0 mm | - | 385 W/m² | - |
| 1777832106 | 16.11° C | 50% | 1013.9 hPa | 0 mm | - | 359 W/m² | - |
| 1777831802 | 15.56° C | 51% | 1014.4 hPa | 0 mm | - | 317 W/m² | - |
| 1777831500 | 15.56° C | 50% | 1014.6 hPa | 0 mm | - | 249 W/m² | - |
| 1777831196 | 15.56° C | 51% | 1014.6 hPa | 0 mm | - | 264 W/m² | - |
| 1777830895 | 15.56° C | 51% | 1014.9 hPa | 0 mm | - | 213 W/m² | - |
| 1777830591 | 15.56° C | 50% | 1014.8 hPa | 0 mm | - | 192 W/m² | - |
| 1777830289 | 15.56° C | 50% | 1014.8 hPa | 0 mm | - | 353 W/m² | - |
| 1777829984 | 15.56° C | 51% | 1015.1 hPa | 0 mm | - | 213 W/m² | - |
| 1777829680 | 15.56° C | 50% | 1015.3 hPa | 0 mm | - | 194 W/m² | - |
| 1777829377 | 15.56° C | 51% | 1015.4 hPa | 0 mm | - | 246 W/m² | - |
| 1777829075 | 15° C | 51% | 1015.5 hPa | 0 mm | - | 233 W/m² | - |
| 1777828771 | 15° C | 50% | 1015.5 hPa | 0 mm | - | 152 W/m² | - |
| 1777828468 | 15° C | 50% | 1015.4 hPa | 0 mm | - | 123 W/m² | - |
| 1777828166 | 15.56° C | 51% | 1015.5 hPa | 0 mm | - | 115 W/m² | - |
| 1777827861 | 15.56° C | 50% | 1015.3 hPa | 0 mm | - | 139 W/m² | - |
| 1777827559 | 15.56° C | 49% | 1015.2 hPa | 0 mm | - | 299 W/m² | - |
| 1777827256 | 15.56° C | 51% | 1015.4 hPa | 0 mm | - | 394 W/m² | - |
| 1777826952 | 15.56° C | 53% | 1015.3 hPa | 0 mm | - | 264 W/m² | - |
| 1777826650 | 15.56° C | 51% | 1015.4 hPa | 0 mm | - | 405 W/m² | - |
| 1777826346 | 15° C | 53% | 1015.7 hPa | 0 mm | - | 272 W/m² | - |
| 1777826044 | 15° C | 53% | 1016 hPa | 0 mm | - | 214 W/m² | - |
| 1777825740 | 15° C | 53% | 1016 hPa | 0 mm | - | 256 W/m² | - |
* Rain latest hour (hover to see other rain measurements)
** Current wind speed in m/s (hover to see current wind gust speed)